Regional Weather Roundup
Issued by NWS Newport/Morehead, NC

Current Version | Previous Version | Text Only | Print | Product List | Glossary On
Versions: 1 2 3 4 5 6 7 8 9 10 11 12 13 14 15 16 17 18 19 20 21 22 23 24 25 26 27 28 29 30 31 32 33 34 35 36 37 38 39 40 41 42 43 44 45 46 47 48 49 50
585 ASUS42 KMHX 270213 RWRMHX WEATHER ROUNDUP FOR EASTERN NORTH CAROLINA NATIONAL WEATHER SERVICE NEWPORT/MOREHEAD CITY NC 1000 PM EDT SUN MAR 26 2017 NOTE: "FAIR" INDICATES FEW OR NO CLOUDS BELOW 12,000 FEET WITH NO SIGNIFICANT WEATHER AND/OR OBSTRUCTIONS TO VISIBILITY NCZ015>017-031-032-045>047-102-103-270300- NORTH COAST CITY SKY/WX TMP DP RH WIND PRES REMARKS EDENTON CLEAR 63 55 73 CALM 30.22R ELIZABETH CITY PTCLDY 57 53 86 SE6 30.22R KITTY HAWK NOT AVBL MANTEO PTCLDY 58 54 87 SE7 30.23S $$ NCZ045>047-081-094-103-104-270300- CENTRAL COAST CITY SKY/WX TMP DP RH WIND PRES REMARKS FRISCO MOCLDY 67 55 65 SE7 30.23S $$ NCZ095-097-098-100-101-270300- SOUTHERN COAST CITY SKY/WX TMP DP RH WIND PRES REMARKS BEAUFORT CLEAR 67 57 70 SE8 30.21S CEDAR ISLAND NOT AVBL JACKSONVILLE CLEAR 62 57 83 CALM 30.20R PINEY ISLAND PTCLDY N/A N/A N/A SE8 30.22R WILMINGTON CLEAR 59 54 83 E3 30.20R $$ NCZ011>013-027>030-043-044-078>080-089-090>093-098-270300- COASTAL PLAIN CITY SKY/WX TMP DP RH WIND PRES REMARKS AHOSKIE N/A 62 55 75 SE8 30.19S CLINTON CLEAR 63 56 78 CALM 30.19R ELIZABETHTOWN CLEAR 63 56 77 SE5 30.19R GOLDSBORO CLEAR 65 54 66 SE5 30.18R GREENVILLE CLEAR 64 54 68 SE7 30.21S HAVELOCK CLEAR 63 55 75 SE6 30.22R KENANSVILLE CLEAR 63 54 72 S3 30.20R KINSTON CLEAR 64 54 68 SE6 30.20S NEW BERN CLEAR 61 56 83 SE3 30.22R RICHLANDS CLEAR 55 52 89 CALM 30.21R ROCKY MOUNT CLEAR 65 53 65 S6 30.18R WASHINGTON CLEAR 63 56 76 SE6 30.21S WHITEVILLE CLEAR 64 55 75 SE3 30.19R $$ AMZ130-135-150-152-154-156-158-170-250-252-270-ANZ085-086-088-633-658-670-270300- MARINE OBSERVATIONS STATION/POSITION TIME TEMP WIND PRES WAVE SWELL AIR SEA DIR/SP/G HT/PER HT/PER (UTC) (F) (DEG/KT/KT) (MB) (FT/S) (FT/S) CHESAPEAKE LIGHT NOT AVBL 64 E VA BEACH 0150 55 51 100/ 8/ 10 1023.9 4/ 7 3/ 7 DUCK 0136 53 47 150/ 9/ 10 1023.0 2 E DUCK 0200 51 N/A 3/ 6 OREGON INLET 0148 90/ 6/ 8 1023.7 13E OREGON INLT 0148 51 N/A 2/10 2/10 HATTERAS CG 0136 67 60 150/ 7/ 10 1023.4 DIAMOND BUOY 0150 70 76 160/ 12/ 14 1024.0 4/ 9 3/ 9 CAPE LOOKOUT 0200 67 140/ 11/ 12 1022.9 BEAUFORT LAB 0136 65 57 150/ 7/ 9 1022.2 30 SE NEW RVR IN 0108 67 140/ 8/ 12 1022.8 30 SE NEW RVR IN 0143 65 N/A 3/ 8 2/11 27 SE WRIGHTSVLE 0108 67 63 190/ 6/ 10 1021.7 5 SE WRIGHTSVLE 0108 63 62 170/ 8/ 10 1022.1 225 S CAPE HAT 0150 69 72 100/ 12/ 14 1023.4 5/ 9 5/ 9 41 SE CHARLESTON 0150 72 74 140/ 14/ 16 1021.4 4/ 7 3/ 7 $$

USA.gov is the U.S. government's official web portal to all federal, state and local government web resources and services.